Tracking 30009 objects as of 7-Dec-2024
HD Live streaming from Space Station
objects crossing your sky now

COSMOS 1275 DEB

Track COSMOS 1275 DEB now!
10-day predictions


NORAD ID: 42122
Int'l Code: 1981-053QJ
Perigee: 889.0 km
Apogee: 1,018.3 km
Inclination: 82.9 °
Period: 104.0 minutes
Semi major axis: 7324 km
RCS: Unknown
Launch date: June 4, 1981
Source: Commonwealth of Independent States (former USSR) (CIS)
Launch site: PLESETSK MISSILE AND SPACE COMPLEX (PKMTR)

Note: This is SATELLITE DEBRIS
Your satellite tracking list
Your tracking list is empty




NASA's NSSDC Master Catalog

Two Line Element Set (TLE):
1 42122U 81053QJ  24340.95716334  .00003232  00000-0  27662-2 0  9994
2 42122  82.9377  65.0992 0088271 318.8469  40.6057 13.84906091555913
Source of the keplerian elements: AFSPC